DateTimeUTC,F1_A11,F1_S11,BsB_S11,BsG_S11,BsR_S11,BbsB_S11,BbsG_S11,BbsR_S11,BaB_A11,BaG_A11,BaR_A11,Tu_S11,T_S11,Uu_S11,U_S11,P_S11,T1_A11
2021-08-09T06:00:00Z,00000200,20000000,,,,,,,-000.08,0000.24,0000.19,18.3,25.2,05.0,03.3,0669.4,31.0
2021-08-09T06:01:00Z,00000200,20000000,,,,,,,-000.20,-000.04,0000.31,18.2,25.2,05.0,03.3,0669.4,31.0
2021-08-09T06:02:00Z,00000200,20000000,,,,,,,0000.54,0000.08,-000.20,18.2,25.2,05.1,03.3,0669.4,31.0
2021-08-09T06:03:00Z,00000200,60000000,,,,,,,-000.33,0000.11,0000.52,18.2,25.3,05.4,03.5,0669.4,31.0
2021-08-09T06:04:00Z,00000200,40000000,0002.96,0002.07,0001.23,0000.45,0000.34,0000.35,0000.37,0000.54,0000.40,18.3,25.0,05.5,03.7,0670.4,31.0
2021-08-09T06:05:00Z,00000200,00000000,0003.66,0002.08,0001.15,-000.00,0000.38,0000.20,-000.05,-000.08,0000.31,18.4,24.9,05.7,03.8,0670.5,31.0
2021-08-09T06:06:00Z,00000200,00000000,0004.04,0002.45,0000.97,0000.42,0000.01,0000.10,0000.03,0000.06,0000.03,18.4,24.9,05.8,03.9,0670.4,31.0
2021-08-09T06:07:00Z,00000200,00000000,0003.90,0002.30,0001.44,-000.20,0000.32,0000.29,0000.03,-000.18,0000.45,18.4,24.9,05.8,03.9,0670.4,31.0
2021-08-09T06:08:00Z,00000200,00000000,0003.69,0002.36,0001.26,0000.20,0000.25,0000.44,0000.02,0000.08,0000.32,18.4,24.9,05.8,03.9,0670.4,31.0
2021-08-09T06:09:00Z,00000200,00000000,0003.27,0002.43,0001.18,0000.22,0000.33,0000.16,0000.23,0000.13,-000.23,18.5,25.0,05.8,03.9,0670.4,31.0
2021-08-09T06:10:00Z,00000200,00000000,0003.59,0002.47,0001.20,0000.35,0000.22,0000.34,-000.32,0000.29,0000.89,18.6,25.0,05.8,03.9,0670.4,31.0
2021-08-09T06:11:00Z,00000200,00000000,0004.18,0002.31,0001.22,0000.18,0000.15,0000.39,0000.04,0000.00,-000.07,18.6,25.1,05.8,03.9,0670.5,31.0
2021-08-09T06:12:00Z,00000200,00000000,0004.38,0002.40,0001.52,-000.22,0000.20,0000.41,-000.03,-000.31,0000.33,18.7,25.1,05.7,03.8,0670.5,31.0
2021-08-09T06:13:00Z,00000200,00000000,0004.26,0002.47,0001.35,0000.18,0000.17,0000.36,-000.17,-000.04,-000.03,18.7,25.1,05.7,03.8,0670.5,31.0
2021-08-09T06:14:00Z,00000200,00000000,0003.59,0002.34,0001.54,0000.85,0000.12,0000.22,-000.31,0000.10,0000.53,18.7,25.1,05.7,03.9,0670.5,31.1
2021-08-09T06:15:00Z,00000200,00000000,0004.06,0002.59,0001.01,-000.22,0000.39,0000.13,0000.04,0000.19,0000.50,18.7,25.1,05.6,03.8,0670.5,31.0
2021-08-09T06:16:00Z,00000200,00000000,0003.70,0002.32,0001.31,0000.68,0000.44,0000.45,-000.05,0000.19,-000.00,18.7,25.1,05.7,03.9,0670.5,31.0
2021-08-09T06:17:00Z,00000200,00000000,0004.24,0002.66,0001.01,0000.63,0000.32,0000.03,-000.01,-000.50,0000.06,18.7,25.1,05.6,03.8,0670.4,31.0
2021-08-09T06:18:00Z,00000200,00000000,0004.64,0002.20,0000.99,0000.10,-000.04,0000.00,-000.21,0000.01,0000.55,18.6,25.0,05.7,03.8,0670.4,31.0
2021-08-09T06:19:00Z,00000200,00000000,0004.19,0002.77,0001.45,0000.39,0000.09,0000.39,0000.01,0000.07,0000.03,18.6,25.0,05.5,03.8,0670.4,31.0
2021-08-09T06:20:00Z,00000200,00000000,0004.80,0002.46,0001.62,0000.30,0000.16,0000.16,-000.20,-000.16,0000.15,18.6,25.0,05.7,03.8,0670.4,31.0
2021-08-09T06:21:00Z,00000200,00000000,0004.36,0002.20,0001.34,-000.06,0000.22,0000.38,0000.00,-000.07,0000.43,18.6,25.0,05.6,03.8,0670.4,31.0
2021-08-09T06:22:00Z,00000200,00000000,0004.65,0003.08,0001.53,0000.05,0000.62,0000.25,-000.25,0000.08,0000.12,18.6,25.0,05.6,03.8,0670.4,31.0
2021-08-09T06:23:00Z,00000200,00000000,0003.83,0002.57,0001.50,-000.05,0000.02,0000.50,-000.09,0000.19,0000.25,18.6,25.0,05.5,03.7,0670.4,31.0
2021-08-09T06:24:00Z,00000200,00000000,0003.66,0002.64,0001.67,0000.74,0000.01,0000.43,-000.24,0000.12,0000.12,18.7,25.0,05.6,03.8,0670.4,31.0
2021-08-09T06:25:00Z,00000200,00000000,0003.70,0002.98,0001.66,-000.12,0000.03,0000.43,-000.22,-000.47,0000.52,18.7,25.1,05.5,03.7,0670.4,31.0
2021-08-09T06:26:00Z,00000200,00000000,0003.83,0002.66,0001.59,0000.44,0000.12,0000.28,0000.24,0000.35,0000.01,18.7,25.1,05.5,03.7,0670.4,31.0
2021-08-09T06:27:00Z,00000200,00000000,0003.30,0002.52,0001.84,0000.61,0000.09,0000.56,-000.58,-000.27,0000.08,18.7,25.0,05.4,03.7,0670.4,31.0
2021-08-09T06:28:00Z,00000200,00000000,0003.86,0002.87,0001.76,0000.11,0000.45,0000.46,0000.28,0000.10,0000.21,18.7,25.1,05.5,03.7,0670.4,31.0
2021-08-09T06:29:00Z,00000200,00000000,0004.18,0002.46,0001.61,0000.03,0000.25,0000.27,-000.22,0000.05,0000.29,18.7,25.1,05.6,03.8,0670.4,31.0
2021-08-09T06:30:00Z,00000200,00000000,0004.60,0002.76,0001.68,0000.29,0000.47,0000.73,-000.19,0000.08,0000.55,18.7,25.0,05.6,03.8,0670.4,31.0
2021-08-09T06:31:00Z,00000200,00000000,0004.58,0002.64,0001.75,0000.23,0000.08,0000.67,-000.06,-000.01,0000.19,18.7,25.0,05.6,03.8,0670.4,31.0
2021-08-09T06:32:00Z,00000200,00000000,0003.55,0002.83,0001.63,0000.60,0000.36,0000.28,0000.20,0000.06,0000.62,18.7,25.0,05.6,03.8,0670.4,31.0
2021-08-09T06:33:00Z,00000200,00000000,0005.12,0003.09,0001.68,0000.05,0000.16,0000.55,-000.08,0000.07,0000.02,18.7,25.0,05.7,03.9,0670.5,31.0
2021-08-09T06:34:00Z,00000200,00000000,0004.34,0002.97,0001.33,0000.45,0000.51,0000.46,-000.12,0000.15,0000.48,18.7,25.0,05.7,03.8,0670.5,31.0
2021-08-09T06:35:00Z,00000200,00000000,0004.74,0002.84,0001.54,0000.42,0000.44,0000.32,-000.10,-000.06,0000.21,18.6,25.0,05.7,03.9,0670.5,31.0
2021-08-09T06:36:00Z,00000200,00000000,0004.22,0003.44,0001.61,0000.65,-000.03,0000.39,0000.08,0000.09,0000.25,18.6,25.0,05.8,03.9,0670.5,31.0
2021-08-09T06:37:00Z,00000200,00000000,0004.75,0002.98,0001.72,-000.05,0000.23,0000.67,-000.15,-000.11,0000.21,18.6,25.0,05.8,04.0,0670.4,31.0
2021-08-09T06:38:00Z,00000200,00000000,0005.25,0002.98,0001.84,0000.57,0000.47,0000.65,-000.06,0000.02,0000.30,18.6,25.0,05.9,04.0,0670.4,31.0
2021-08-09T06:39:00Z,00000200,00000000,0005.19,0003.01,0001.55,0000.27,0000.16,0000.36,-000.33,0000.08,0000.45,18.6,25.0,06.0,04.0,0670.4,31.0
2021-08-09T06:40:00Z,00000200,00000000,0004.44,0002.80,0001.46,0000.34,0000.43,0000.15,0000.07,0000.18,0000.30,18.6,25.0,06.0,04.1,0670.5,31.0
2021-08-09T06:41:00Z,00000200,00000000,0004.17,0003.42,0001.65,0000.06,0000.10,-000.01,-000.12,-000.26,0000.64,18.6,25.0,06.0,04.0,0670.4,31.0
2021-08-09T06:42:00Z,00000200,00000000,0004.26,0002.84,0001.90,0000.63,0000.36,0000.23,0000.18,0000.34,0000.37,18.6,25.0,06.1,04.1,0670.5,31.0
2021-08-09T06:43:00Z,00000200,00000000,0003.90,0003.09,0001.94,0000.45,0000.39,0000.55,-000.13,0000.28,0000.37,18.6,24.9,06.1,04.1,0670.5,31.0
2021-08-09T06:44:00Z,00000200,00000000,0004.97,0003.06,0002.17,0000.44,0000.23,0000.48,-000.16,-000.37,0000.11,18.6,24.9,06.1,04.1,0670.4,31.0
2021-08-09T06:45:00Z,00000200,00000000,0004.58,0003.14,0001.54,0000.46,0000.28,0000.29,-000.04,0000.21,0000.51,18.6,24.9,06.2,04.2,0670.5,31.0
2021-08-09T06:46:00Z,00000200,00000000,0004.18,0002.75,0001.78,0000.43,0000.39,0000.28,-000.23,0000.03,0000.51,18.6,24.9,06.3,04.3,0670.5,31.0
2021-08-09T06:47:00Z,00000200,00000000,0004.07,0002.93,0001.77,0000.20,0000.32,0000.30,0000.14,0000.16,0000.29,18.6,24.9,06.3,04.3,0670.4,31.0
2021-08-09T06:48:00Z,00000200,00000000,0003.97,0002.79,0001.97,0000.00,0000.10,0000.61,-000.29,-000.35,-000.04,18.5,24.9,06.4,04.3,0670.4,31.0
2021-08-09T06:49:00Z,00000200,00000000,0003.55,0003.14,0001.55,0000.55,0000.48,0000.47,0000.08,-000.00,0000.40,18.5,24.9,06.3,04.3,0670.4,31.0
2021-08-09T06:50:00Z,00000200,00000000,0005.00,0002.77,0001.75,0000.24,0000.27,-000.09,-000.04,0000.30,0000.87,18.5,24.9,06.4,04.3,0670.5,31.0
2021-08-09T06:51:00Z,00000200,00000000,0004.34,0002.81,0001.63,-000.34,0000.34,0000.45,-000.04,0000.16,-000.53,18.5,24.9,06.4,04.3,0670.4,31.0
2021-08-09T06:52:00Z,00000200,00000000,0004.28,0003.05,0001.30,0000.69,0000.29,0000.35,-000.31,-000.59,0000.59,18.5,24.9,06.4,04.4,0670.4,31.0
2021-08-09T06:53:00Z,00000200,00000000,0004.04,0002.71,0001.72,-000.11,0000.29,0000.63,-000.24,0000.60,0000.29,18.6,24.9,06.4,04.3,0670.5,31.0
2021-08-09T06:54:00Z,00000200,00000000,0004.63,0003.14,0001.71,0000.88,0000.18,0000.39,-000.18,-000.61,0000.25,18.6,25.0,06.3,04.3,0670.5,31.0
2021-08-09T06:55:00Z,00000200,00000000,0004.65,0003.04,0001.77,-000.08,0000.31,0000.71,-000.02,0000.09,0000.07,18.7,25.0,06.4,04.3,0670.5,31.1
2021-08-09T06:56:00Z,00000200,00000000,0003.88,0002.93,0001.80,0000.46,0000.37,0000.31,-000.18,0000.15,0000.70,18.7,25.0,06.4,04.4,0670.5,31.0
2021-08-09T06:57:00Z,00000200,40000000,,,,,,,-000.68,-000.87,-000.50,18.8,25.1,06.8,04.6,0670.4,31.0
2021-08-09T06:58:00Z,00000200,60000000,,,,,,,0000.27,0000.39,0000.42,18.5,25.2,06.2,04.1,0669.5,31.0
2021-08-09T06:59:00Z,00000200,20000000,,,,,,,-000.18,-000.17,0000.15,18.5,25.3,06.2,04.1,0669.5,31.0
